[[{"header":{"parameterUnit":"m.s-1","parameterCategory":1,"la1":30.2991,"la2":30.254,"lo1":-89.0895,"lo2":-89.0444,"dx":0.0017,"dy":0.0017,"nx":28,"ny":28,"refTime":"2023-01-21T15:00:00:Z","depth":0,"parameterNumber":2,"parameterNumberName":"U-component_of_WINDS"},"data":[0,0,0,0,0,0,0,0,0,0,0,0,0,0,0,0,0,0,0,0,0,0,0,0,0,0,0,0,0,0,0,0,0,0,0,0,0,0,0,0,0,0,0,0,0,0,0,0,0,0,0,0,0,0,0,0,0,0,-7.1058,-7.1059,0,-7.1125,-7.1126,-7.1127,-7.0948,-7.0942,-7.0936,-7.0931,-7.1001,-7.1008,-7.1015,0,0,0,0,0,0,0,0,0,0,0,0,0,-7.0776,-7.0782,-7.1058,-7.1059,-7.106,-7.1125,-7.1126,-7.1127,-7.0949,-7.0942,-7.0935,-7.0929,-7.0999,-7.1007,-7.1016,0,0,0,0,0,0,0,0,0,0,0,0,0,-7.0877,-7.0784,-7.1058,-7.0979,-7.0972,-7.1125,-7.1126,-7.1127,-7.095,-7.0942,-7.0933,-7.0925,-7.0996,-7.1007,-7.1017,-7.125,0,0,-7.105,-7.1054,0,0,0,0,0,0,0,0,-7.0871,-7.0887,-7.0989,-7.0984,-7.0977,-7.1019,-7.1052,-7.1169,-7.0952,-7.0959,-7.0931,-7.0921,-7.1014,-7.1023,-7.1054,-7.1254,-7.1257,-7.1051,-7.1057,-7.1062,-7.1065,0,0,0,0,0,0,0,-7.0865,-7.0883,-7.1084,-7.0991,-7.0984,-7.094,-7.0945,-7.1074,-7.1033,-7.0957,-7.0944,-7.0955,-7.1009,-7.1044,-7.1054,-7.1258,-7.105,-7.106,-7.1066,-7.107,-7.1652,-7.1661,0,0,0,0,0,0,-7.0868,-7.0879,-7.1082,-7.1087,-7.0903,-7.0952,-7.0957,-7.1014,-7.1031,-7.1025,-7.0962,-7.0946,-7.103,-7.1042,-7.1056,-7.133,-7.1061,-7.1071,-7.1077,-7.1643,-7.1654,-7.1664,0,0,0,0,0,0,-7.0862,-7.0888,-7.108,-7.0979,-7.1,-7.0966,-7.1031,-7.102,-7.1054,-7.1034,-7.1026,-7.1005,-7.1024,-7.1041,-7.1203,-7.133,-7.1076,-7.1086,-7.1633,-7.1647,-7.1659,-7.188,0,0,0,0,0,0,-7.0855,-7.0887,-7.0975,-7.0983,-7.1006,-7.1226,-7.1039,-7.1028,-7.1073,-7.1053,-7.1072,-7.1067,-7.1019,-7.1189,-7.1214,-7.134,-7.1094,-7.1621,-7.1639,-7.1655,-7.1861,-7.1899,-7.1932,0,0,0,0,0,-7.0846,-7.1034,-7.098,-7.1005,-7.1116,-7.1234,-7.1247,-7.1187,-7.1084,-7.1172,-7.1159,-7.1067,-7.1312,-7.1207,-7.1234,-7.1365,-7.1613,-7.1634,-7.1654,-7.1845,-7.1892,-7.1931,0,0,0,0,0,0,-7.1042,-7.1034,-7.0973,-7.117,-7.1204,-7.1203,-7.1312,-7.1238,-7.1302,-7.1281,-7.1204,-7.121,-7.1387,-7.1392,-7.1274,-7.1592,-7.1445,-7.1472,-7.1581,-7.1626,-7.166,-7.1655,-7.1103,0,0,0,0,0,-7.1108,-7.1205,-7.1192,-7.1367,-7.1387,-7.1348,-7.1397,-7.1348,-7.138,-7.1393,-7.1392,-7.1427,-7.1511,-7.1569,-7.1646,-7.1862,-7.1863,-7.1965,-7.2001,-7.203,-7.2054,-7.2169,-7.2214,-7.1731,-7.1731,-7.1731,0,0,-7.1246,-7.1253,-7.1319,-7.1407,-7.1427,-7.1529,-7.1361,-7.1475,-7.155,-7.141,-7.1563,-7.1564,-7.1598,-7.1788,-7.1872,-7.1798,-7.2188,-7.2056,-7.208,-7.2087,-7.2194,-7.224,-7.2281,-7.1745,-7.1743,-7.1741,0,0,-7.1548,-7.1564,-7.1711,-7.1735,-7.1768,-7.1741,-7.1777,-7.1788,-7.1783,-7.1935,-7.1832,-7.1921,-7.2069,-7.2097,-7.2131,-7.2447,-7.2364,-7.2474,-7.2659,-7.2772,-7.281,-7.2843,-7.2955,-7.2996,-7.2498,-7.2499,-7.2499,0,-7.1715,-7.1864,-7.1796,-7.1918,-7.196,-7.1839,-7.1988,-7.2014,-7.2072,-7.2104,-7.202,-7.2203,-7.2218,-7.2413,-7.249,-7.2522,-7.256,-7.2471,-7.281,-7.2842,-7.2872,-7.2979,-7.3021,-7.2512,-7.251,-7.2509,-7.2508,0,-7.2067,-7.2173,-7.2288,-7.2346,-7.24,-7.2536,-7.2489,-7.2553,-7.25,-7.2482,-7.2639,-7.2652,-7.273,-7.2773,-7.2722,-7.2962,-7.2915,-7.2822,-7.2673,-7.2933,-7.3031,-7.3071,-7.253,-7.2526,-7.2522,-7.2519,0,0,-7.2494,-7.2514,-7.2557,-7.2582,-7.261,-7.269,-7.2821,-7.2896,-7.2952,-7.2997,-7.3104,-7.3232,-7.3147,-7.3186,-7.3137,-7.3237,-7.3486,-7.3131,-7.3131,-7.3196,-7.375,-7.3819,-7.3867,-7.3432,-7.3439,-7.3445,-7.3747,0,-7.2792,-7.3014,-7.2958,-7.3179,-7.3275,-7.3162,-7.3275,-7.3306,-7.3293,-7.3373,-7.3358,-7.3451,-7.3331,-7.3354,-7.3447,-7.3436,-7.3596,-7.3413,-7.3531,-7.3536,-7.3524,-7.3919,-7.3992,-7.4276,-7.3785,-7.3792,-7.3797,0,-7.3168,-7.3227,-7.3458,-7.3471,-7.3509,-7.3612,-7.3677,-7.3755,-7.3788,-7.3771,-7.3816,-7.3748,-7.3877,-7.3729,-7.3905,-7.3783,-7.3828,-7.383,-7.3839,-7.3847,-7.3681,-7.3937,-7.4365,-7.4408,-7.3857,-7.3852,-7.3848,0,-7.3456,-7.3592,-7.3748,-7.3773,-7.3792,-7.3867,-7.3879,-7.3903,-7.3952,-7.401,-7.4041,-7.4114,-7.4153,-7.4211,-7.4165,-7.4061,-7.435,-7.4197,-7.434,-7.4342,-7.4404,-7.4401,-7.4846,-7.4436,-7.4435,-7.4435,-7.4434,0,-7.3793,-7.3939,-7.3877,-7.3973,-7.4133,-7.4068,-7.4228,-7.4227,-7.4249,-7.4343,-7.4251,-7.4341,-7.4275,-7.436,-7.4325,-7.4477,-7.4496,-7.4486,-7.4475,-7.4494,-7.4495,-7.4521,-7.45,-7.4446,-7.4443,-7.4441,-7.4439,0,-7.4141,-7.4105,-7.4267,-7.4273,-7.4278,-7.4395,-7.44,-7.4489,-7.447,-7.459,-7.4615,-7.4585,-7.468,-7.464,-7.4741,-7.4718,-7.4912,-7.4876,-7.4901,-7.4892,-7.5036,-7.5023,-7.5513,-7.5574,-7.5126,-7.513,-7.5134,0,-7.4358,-7.4467,-7.4485,-7.4541,-7.4559,-7.4651,-7.4701,-7.4641,-7.4697,-7.4743,-7.4827,-7.4914,-7.4981,-7.5139,-7.5126,-7.5203,-7.5167,-7.5334,-7.5178,-7.5194,-7.5169,-7.5162,-7.5173,-7.5364,-7.537,-7.5374,-7.5377,0,-7.4747,-7.4725,-7.48,-7.4871,-7.4933,-7.4985,-7.503,-7.5081,-7.5024,-7.5092,-7.5188,-7.524,-7.5343,-7.5431,-7.55,-7.5511,-7.5436,-7.5427,-7.5464,-7.5483,-7.5494,-7.5489,-7.4985,-7.5415,-7.5411,-7.5409,-7.5407,-7.5405,-7.5035,-7.5127,-7.5154,-7.5241,-7.5269,-7.5313,-7.5397,-7.5389,-7.5468,-7.5547,-7.5507,-7.5619,-7.565,-7.5734,-7.5757,-7.5844,-7.5779,-7.5832,-7.5846,-7.586,-7.5878,-7.5481,-7.5856,-7.5855,-7.5854,-7.5853,-7.5852,0,-7.5419,-7.5431,-7.5512,-7.5577,-7.5647,-7.557,-7.5615,-7.5678,-7.5778,-7.5813,-7.588,-7.5991,-7.6077,-7.6072,-7.6151,-7.6222,-7.6189,-7.6244,-7.6238,-7.6242,-7.5933,-7.5892,-7.6269,-7.6269,-7.6269,-7.6269,-7.6269,-7.6269,-7.5626,-7.5778,-7.5759,-7.5924,-7.5934,-7.6043,-7.6076,-7.6116,-7.6143,-7.6272,-7.6342,-7.6338,-7.6358,-7.6437,-7.6512,-7.6509,-7.6542,-7.661,-7.6594,-7.6305,-7.6264,-7.6224,-7.6186,-7.6618,-7.6619,-7.6895,-7.6898,-7.69]},{"header":{"parameterUnit":"m.s-1","parameterCategory":1,"la1":30.2991,"la2":30.254,"lo1":-89.0895,"lo2":-89.0444,"dx":0.0017,"dy":0.0017,"nx":28,"ny":28,"refTime":"2023-01-21T15:00:00:Z","depth":0,"parameterNumber":3,"parameterNumberName":"V-component_of_WINDS"},"data":[0,0,0,0,0,0,0,0,0,0,0,0,0,0,0,0,0,0,0,0,0,0,0,0,0,0,0,0,0,0,0,0,0,0,0,0,0,0,0,0,0,0,0,0,0,0,0,0,0,0,0,0,0,0,0,0,0,0,0.5832,0.5832,0,0.5858,0.5858,0.5858,0.5879,0.588,0.588,0.588,0.5905,0.5905,0.5905,0,0,0,0,0,0,0,0,0,0,0,0,0,0.5801,0.5801,0.5832,0.5832,0.5833,0.5858,0.5858,0.5859,0.5879,0.588,0.588,0.588,0.5904,0.5905,0.5906,0,0,0,0,0,0,0,0,0,0,0,0,0,0.5819,0.5801,0.5832,0.5846,0.5848,0.5858,0.5858,0.5859,0.5879,0.588,0.588,0.588,0.5904,0.5905,0.5906,0.5903,0,0,0.5908,0.5908,0,0,0,0,0,0,0,0,0.5818,0.582,0.5844,0.5845,0.5847,0.5866,0.5856,0.5873,0.5879,0.5867,0.588,0.588,0.5891,0.5893,0.5897,0.5904,0.5905,0.5908,0.5908,0.5908,0.5909,0,0,0,0,0,0,0,0.5817,0.5819,0.5842,0.5844,0.5846,0.5851,0.5854,0.5859,0.5877,0.5868,0.587,0.5873,0.5892,0.5896,0.5898,0.5906,0.5908,0.5908,0.5909,0.5909,0.5913,0.5913,0,0,0,0,0,0,0.5813,0.5818,0.5841,0.5843,0.5833,0.5851,0.5855,0.5859,0.5877,0.588,0.5872,0.5874,0.5895,0.5897,0.5899,0.5898,0.5908,0.5909,0.5909,0.5914,0.5913,0.5913,0,0,0,0,0,0,0.5813,0.5815,0.584,0.5831,0.5835,0.5852,0.5857,0.586,0.5864,0.588,0.5883,0.5873,0.5895,0.5898,0.5902,0.5899,0.5909,0.591,0.5914,0.5914,0.5913,0.5895,0,0,0,0,0,0,0.5812,0.5815,0.5814,0.5831,0.5835,0.5843,0.5856,0.586,0.5865,0.5867,0.5882,0.5885,0.5896,0.5901,0.5903,0.59,0.591,0.5914,0.5914,0.5913,0.5896,0.5894,0.5892,0,0,0,0,0,0.581,0.5807,0.5814,0.5817,0.5834,0.5843,0.5846,0.5859,0.5865,0.5864,0.5875,0.5884,0.5899,0.5901,0.5904,0.5901,0.5915,0.5914,0.5913,0.5897,0.5894,0.5892,0,0,0,0,0,0,0.5788,0.581,0.5817,0.5819,0.583,0.5847,0.5846,0.5856,0.5864,0.5865,0.5881,0.5884,0.5887,0.5894,0.5897,0.59,0.5908,0.5908,0.5895,0.5893,0.5891,0.5889,0.5911,0,0,0,0,0,0.5784,0.579,0.5808,0.5808,0.5813,0.5829,0.5833,0.5843,0.5853,0.5858,0.5869,0.5878,0.5885,0.589,0.5897,0.5897,0.5901,0.5897,0.5895,0.5893,0.5893,0.5894,0.5893,0.5911,0.5911,0.5911,0,0,0.5774,0.5787,0.5789,0.5804,0.5813,0.5818,0.5832,0.5837,0.5841,0.5858,0.5863,0.5872,0.5884,0.5887,0.5889,0.5893,0.5889,0.5892,0.5891,0.5891,0.5893,0.5892,0.589,0.5911,0.5911,0.5911,0,0,0.576,0.577,0.5772,0.5781,0.5795,0.5806,0.5806,0.5822,0.5829,0.5835,0.5848,0.5853,0.5865,0.5873,0.5879,0.587,0.5879,0.5872,0.5862,0.5863,0.5862,0.586,0.5857,0.5856,0.5871,0.5871,0.5871,0,0.5746,0.5755,0.5771,0.5776,0.5782,0.5799,0.5801,0.5809,0.5824,0.5828,0.5833,0.5849,0.5858,0.5864,0.5862,0.5866,0.5867,0.5869,0.5861,0.586,0.5859,0.5856,0.5855,0.587,0.587,0.587,0.587,0,0.5738,0.5744,0.5744,0.576,0.5766,0.5769,0.5785,0.579,0.58,0.581,0.5816,0.5828,0.5839,0.5841,0.5849,0.5848,0.585,0.5858,0.5866,0.5856,0.5853,0.5853,0.5869,0.5869,0.5869,0.587,0,0,0.5709,0.5734,0.5734,0.5742,0.5759,0.5764,0.5769,0.578,0.5784,0.5794,0.5798,0.5809,0.5816,0.5823,0.5833,0.5834,0.5827,0.5842,0.5843,0.5839,0.5826,0.582,0.5818,0.5834,0.5833,0.5833,0.5825,0,0.5697,0.5706,0.5721,0.5726,0.5732,0.5749,0.5753,0.5764,0.5775,0.5781,0.5793,0.58,0.5809,0.5814,0.5816,0.5827,0.5825,0.5828,0.5837,0.5837,0.5833,0.5817,0.581,0.5802,0.5824,0.5824,0.5824,0,0.5684,0.5695,0.57,0.5718,0.5721,0.5725,0.5737,0.5743,0.5757,0.5764,0.5772,0.5784,0.579,0.5798,0.5806,0.5809,0.5814,0.582,0.582,0.5821,0.5829,0.5817,0.5799,0.5798,0.5823,0.5823,0.5823,0,0.5662,0.5678,0.5683,0.5689,0.5711,0.5713,0.5722,0.5736,0.5742,0.5753,0.5757,0.5768,0.5773,0.5782,0.5796,0.5801,0.5803,0.5812,0.5809,0.5809,0.5808,0.5807,0.579,0.5812,0.5812,0.5812,0.5812,0,0.5647,0.565,0.5674,0.5677,0.5681,0.5699,0.5702,0.5712,0.5725,0.573,0.5746,0.5751,0.577,0.5777,0.5788,0.5793,0.5796,0.5802,0.5805,0.58,0.58,0.5803,0.5804,0.5811,0.5811,0.5811,0.5812,0,0.5623,0.5639,0.5647,0.5667,0.5672,0.5674,0.5691,0.5695,0.5707,0.5714,0.5717,0.5735,0.5745,0.576,0.5774,0.5782,0.5785,0.579,0.578,0.5782,0.5778,0.5778,0.5762,0.5761,0.5783,0.5783,0.5783,0,0.5612,0.5614,0.5636,0.5641,0.565,0.5658,0.5665,0.5683,0.5689,0.5706,0.5708,0.5719,0.5728,0.5742,0.5757,0.5768,0.5773,0.5767,0.5774,0.577,0.5773,0.5772,0.5773,0.5764,0.5764,0.5764,0.5764,0,0.5591,0.5599,0.5609,0.5622,0.563,0.564,0.5652,0.5655,0.5676,0.5682,0.5693,0.57,0.5715,0.5726,0.5739,0.5748,0.5759,0.5761,0.5761,0.5756,0.5751,0.5754,0.5775,0.5761,0.5761,0.5762,0.5762,0.5762,0.5572,0.5576,0.5592,0.5602,0.5613,0.5624,0.5629,0.5643,0.5652,0.5666,0.5676,0.5686,0.57,0.5719,0.5728,0.5736,0.5741,0.574,0.574,0.574,0.5738,0.575,0.5738,0.5738,0.5738,0.5739,0.5739,0,0.5552,0.5564,0.5573,0.559,0.5598,0.5609,0.5623,0.5629,0.5638,0.5651,0.566,0.5673,0.5684,0.57,0.5712,0.5715,0.5721,0.5718,0.5717,0.5719,0.5733,0.5732,0.5713,0.5713,0.5713,0.5713,0.5713,0.5713,0.5542,0.5549,0.556,0.5572,0.5584,0.5594,0.5601,0.5611,0.5622,0.5635,0.5645,0.5656,0.567,0.5684,0.5694,0.5699,0.5702,0.5698,0.5704,0.5716,0.5718,0.572,0.572,0.5699,0.5698,0.569,0.5689,0.5689]}]]